Location: Alvis C Story Elementary School
(33.0968°N, 96.6364°W)
Time: 13:44:26
(UTC+00:00)

Lacrosse 5 rocket - Pass Details

Date: 03 July 2022
Orbit: 455 x 628 km, 57.0° (Epoch: 07 August)

Event Time Altitude Azimuth Distance (km) Brightness Sun altitude
Rises 03:02:32 0° 329° (NNW) 2,595 6.2 -15.1°
Reaches altitude 10° 03:04:46 10° 338° (NNW) 1,737 4.9 -15.5°
Maximum altitude 03:08:27 38° 47° (NE) 826 2.1 -16.1°
Enters shadow 03:10:05 26° 95° (E) 1,084 2.4 -16.3°
